Location: Bazugues
(43.4465°N, 0.3432°E)
Time: 18:04:36
(UTC+00:00)

UNISAT 6 - Pass Details

Date: 24 May 2026
Orbit: 571 x 636 km, 97.8° (Epoch: 10 June)

Event Time Altitude Azimuth Distance (km) Brightness Sun altitude
Rises 01:37:59 0° 113° (ESE) 2,887 ? -21.6°
Reaches altitude 10° 01:41:37 10° 81° (E) 1,971 ? -21.3°
Maximum altitude 01:43:03 12° 61° (ENE) 1,865 ? -21.2°
Drops below altitude 10° 01:44:28 10° 41° (NE) 1,962 ? -21.1°
Sets 01:48:03 0° 9° (N) 2,854 ? -20.8°
